Regional Weather Roundup
Issued by NWS State College, PA

Home | Current Version | Previous Version | Text Only | Print | Product List | Glossary On
Versions: 1 2 3 4 5 6 7 8 9 10 11 12 13 14 15 16 17 18 19 20 21 22 23 24 25 26 27 28 29 30 31 32 33 34 35 36 37 38 39 40 41 42 43 44 45 46 47 48 49 50
000
ASUS41 KCTP 180203
RWRCTP
PHLRWRCTP ALL

REGIONAL WEATHER ROUNDUP
NATIONAL WEATHER SERVICE STATE COLLEGE PA
900 PM EST WED JAN 17 2018

Note: "fair" indicates few or no clouds below 12,000 feet with no
significant weather and/or obstructions to visibility.

* = STATION THAT DOES NOT REPORT PRECIPITATION /E.G. RAIN...SNOW...ETC/
    THUNDER OR FOG.

PAZ002>004-007>009-013>016-020>023-029>032-180300-
WESTERN PENNSYLVANIA

CITY           SKY/WX    TMP DP  RH WIND       PRES   REMARKS
ERIE           FAIR      14   6  70 S16       30.27F WCI  -2
MEADVILLE      FAIR       8   4  83 SW12      30.25F WCI  -7
FRANKLIN*      FAIR       6   3  87 SW9       30.26F WCI  -8
NEW CASTLE     FAIR       6   3  87 SW6       30.34F WCI  -4
BEAVER COUNTY  CLEAR      7   3  85 S5        30.33F WCI  -2
BUTLER*        FAIR       6   3  87 SW7       30.33F WCI  -6
PITTSBURGH INT FAIR       9   3  77 SW9       30.34F WCI  -4
PITTSBURGH     FAIR       7   0  73 S10       30.34F WCI  -8
INDIANA*       PTCLDY    10   7  85 W8G15     30.34F WCI  -1
LATROBE        PTCLDY     7   1  78 SW9       30.37F WCI  -7
WASHINGTON CO* FAIR       4   1  88 S7        30.40F WCI  -8
$$

PAZ004>006-010>012-017>019-024>028-033>037-041-042-045-046-049>053-180300-
CENTRAL PENNSYLVANIA

CITY           SKY/WX    TMP DP  RH WIND       PRES   REMARKS
BRADFORD       CLOUDY     9   5  84 SW8G20    30.15F WCI  -3
DUBOIS         CLOUDY     7   3  84 W15       30.22F WCI -10
CLEARFIELD     MOCLDY    10   5  80 W9G18     30.25F WCI  -3
JOHNSTOWN      LGT SNOW   7   4  87 W15       30.20S FOG     WCI -10
ALTOONA        CLOUDY    12   5  73 W6        30.25F WCI   3
STATE COLLEGE  CLEAR     12   5  73 W9        30.26F WCI   0
WILLIAMSPORT   FAIR      17   7  64 W13       30.25F WCI   4
SELINSGROVE    FAIR      27   7  42 W5        30.29R
FT INDIANTOWN  FAIR      18   8  63 W9        30.25F WCI   7
CAPITAL CITY   FAIR      19   7  59 W15       30.29S WCI   5
HARRISBURG     FAIR      19   9  65 NW14      30.28S WCI   6
YORK           FAIR      13   5  70 W6        30.28R WCI   4
$$

PAZ038>040-043-044-047-048-054-055-060>062-067>071-180300-
EASTERN PENNSYLVANIA

CITY           SKY/WX    TMP DP  RH WIND       PRES   REMARKS
SCRANTON       FAIR      12   7  80 SW3       30.18F
MOUNT POCONO   FAIR       8   5  87 NW8       30.07F WCI  -4
ALLENTOWN      FAIR      14   4  64 CALM      30.22F
QUAKERTOWN*    FAIR      18   9  68 MISG      30.21F
READING        FAIR      14   9  80 W7        30.24F WCI   4
LANCASTER      FAIR      14   7  73 W9        30.25F WCI   2
COATESVILLE    FAIR      16   9  73 NW9       30.23S WCI   4
POTTSTOWN      FAIR      15   6  67 NW6       30.24F WCI   6
BLUE BELL      FAIR      21  10  63 CALM      30.24S
DOYLESTOWN     FAIR      19   8  62 NW9       30.21S WCI   8
WILLOW GROVE   NOT AVBL
NORTH PHILA    FAIR      24  11  57 N13G23    30.25R WCI  12
PHILADELPHIA   CLOUDY    24   8  50 NW15      30.26R WCI  11
$$




USA.gov is the U.S. government's official web portal to all federal, state and local government web resources and services.